Time,TemperatureF,DewpointF,PressureIn,WindDirection,WindDirectionDegrees,WindSpeedMPH,WindSpeedGustMPH,Humidity,HourlyPrecipIn,Conditions,Clouds,dailyrainin,SoftwareType,DateUTC
2013-11-04 05:00:00,32.0,-99.9,30.48,ESE,120,6.0,-999.0,-999,-99.99,,,-99.99,,2013-11-04 05:00:00,
2013-11-04 05:44:00,32.0,-99.9,30.48,ESE,120,6.0,-999.0,-999,-99.99,,,-99.99,,2013-11-04 05:44:00,
2013-11-04 05:53:00,32.0,-99.9,30.48,ESE,120,6.0,-999.0,-999,-99.99,,,-99.99,,2013-11-04 05:53:00,
2013-11-04 06:00:00,31.0,-99.9,30.52,SE,130,5.0,-999.0,-999,-99.99,,,-99.99,,2013-11-04 06:00:00,
2013-11-04 06:42:00,31.0,-99.9,30.52,SE,130,5.0,-999.0,-999,-99.99,,,-99.99,,2013-11-04 06:42:00,
2013-11-04 06:52:00,31.0,-99.9,30.52,SE,130,5.0,-999.0,-999,-99.99,,,-99.99,,2013-11-04 06:52:00,
2013-11-04 07:00:00,30.0,-99.9,30.53,SE,130,5.0,-999.0,-999,-99.99,,,-99.99,,2013-11-04 07:00:00,
2013-11-04 07:43:00,30.0,-99.9,30.53,SE,130,5.0,-999.0,-999,-99.99,,,-99.99,,2013-11-04 07:43:00,
2013-11-04 07:52:00,30.0,-99.9,30.53,SE,130,5.0,-999.0,-999,-99.99,,,-99.99,,2013-11-04 07:52:00,
2013-11-04 08:00:00,30.0,-99.9,30.53,ESE,120,6.0,-999.0,-999,-99.99,,,-99.99,,2013-11-04 08:00:00,
2013-11-04 08:42:00,30.0,-99.9,30.53,ESE,120,6.0,-999.0,-999,-99.99,,,-99.99,,2013-11-04 08:42:00,
2013-11-04 08:52:00,30.0,-99.9,30.53,ESE,120,6.0,-999.0,-999,-99.99,,,-99.99,,2013-11-04 08:52:00,
2013-11-04 09:00:00,33.0,-99.9,30.52,SE,140,9.0,-999.0,-999,-99.99,,,-99.99,,2013-11-04 09:00:00,
2013-11-04 09:43:00,33.0,-99.9,30.52,SE,140,9.0,-999.0,-999,-99.99,,,-99.99,,2013-11-04 09:43:00,
2013-11-04 09:53:00,33.0,-99.9,30.52,SE,140,9.0,-999.0,-999,-99.99,,,-99.99,,2013-11-04 09:53:00,
2013-11-04 10:00:00,35.0,-99.9,30.52,SE,140,23.0,-999.0,-999,-99.99,,,-99.99,,2013-11-04 10:00:00,
2013-11-04 10:43:00,35.0,-99.9,30.52,SE,140,23.0,-999.0,-999,-99.99,,,-99.99,,2013-11-04 10:43:00,
2013-11-04 10:52:00,35.0,-99.9,30.52,SE,140,23.0,-999.0,-999,-99.99,,,-99.99,,2013-11-04 10:52:00,
2013-11-04 11:00:00,37.0,-99.9,30.52,SE,140,28.0,-999.0,-999,-99.99,,,-99.99,,2013-11-04 11:00:00,
2013-11-04 11:43:00,37.0,-99.9,30.52,SE,140,28.0,-999.0,-999,-99.99,,,-99.99,,2013-11-04 11:43:00,
2013-11-04 11:52:00,37.0,-99.9,30.52,SE,140,28.0,-999.0,-999,-99.99,,,-99.99,,2013-11-04 11:52:00,
2013-11-04 12:00:00,38.0,-99.9,30.52,ESE,120,22.0,-999.0,-999,-99.99,,,-99.99,,2013-11-04 12:00:00,
2013-11-04 12:42:00,38.0,-99.9,30.52,ESE,120,22.0,-999.0,-999,-99.99,,,-99.99,,2013-11-04 12:42:00,
2013-11-04 12:52:00,38.0,-99.9,30.52,ESE,120,22.0,-999.0,-999,-99.99,,,-99.99,,2013-11-04 12:52:00,
2013-11-04 15:00:00,44.0,-99.9,30.47,ESE,120,20.0,-999.0,-999,-99.99,,,-99.99,,2013-11-04 15:00:00,
2013-11-04 15:42:00,44.0,-99.9,30.47,ESE,120,20.0,-999.0,-999,-99.99,,,-99.99,,2013-11-04 15:42:00,
2013-11-04 15:52:00,44.0,-99.9,30.47,ESE,120,20.0,-999.0,-999,-99.99,,,-99.99,,2013-11-04 15:52:00,
2013-11-04 16:00:00,43.0,-99.9,30.45,ESE,120,17.0,-999.0,-999,-99.99,,,-99.99,,2013-11-04 16:00:00,
2013-11-04 16:43:00,43.0,-99.9,30.45,ESE,120,17.0,-999.0,-999,-99.99,,,-99.99,,2013-11-04 16:43:00,
2013-11-04 16:54:00,43.0,-99.9,30.45,ESE,120,17.0,-999.0,-999,-99.99,,,-99.99,,2013-11-04 16:54:00,
2013-11-04 17:00:00,45.0,-99.9,30.45,ESE,120,16.0,-999.0,-999,-99.99,,,-99.99,,2013-11-04 17:00:00,
2013-11-04 17:42:00,45.0,-99.9,30.45,ESE,120,16.0,-999.0,-999,-99.99,,,-99.99,,2013-11-04 17:42:00,
2013-11-04 17:53:00,45.0,-99.9,30.45,ESE,120,16.0,-999.0,-999,-99.99,,,-99.99,,2013-11-04 17:53:00,
2013-11-04 18:00:00,45.0,-99.9,30.40,ESE,120,17.0,-999.0,-999,-99.99,,,-99.99,,2013-11-04 18:00:00,
2013-11-04 18:42:00,45.0,-99.9,30.40,ESE,120,17.0,-999.0,-999,-99.99,,,-99.99,,2013-11-04 18:42:00,
2013-11-04 18:52:00,45.0,-99.9,30.40,ESE,120,17.0,-999.0,-999,-99.99,,,-99.99,,2013-11-04 18:52:00,
2013-11-04 19:00:00,45.0,-99.9,30.37,ESE,120,22.0,-999.0,-999,-99.99,,,-99.99,,2013-11-04 19:00:00,
2013-11-04 19:42:00,45.0,-99.9,30.37,ESE,120,22.0,-999.0,-999,-99.99,,,-99.99,,2013-11-04 19:42:00,
2013-11-04 19:52:00,45.0,-99.9,30.37,ESE,120,22.0,-999.0,-999,-99.99,,,-99.99,,2013-11-04 19:52:00,
2013-11-04 20:00:00,46.0,-99.9,30.36,SE,140,16.0,-999.0,-999,-99.99,,,-99.99,,2013-11-04 20:00:00,
2013-11-04 20:42:00,46.0,-99.9,30.36,SE,140,16.0,-999.0,-999,-99.99,,,-99.99,,2013-11-04 20:42:00,
2013-11-04 20:53:00,46.0,-99.9,30.36,SE,140,16.0,-999.0,-999,-99.99,,,-99.99,,2013-11-04 20:53:00,
2013-11-04 21:00:00,46.0,-99.9,30.36,ESE,110,17.0,-999.0,-999,-99.99,,,-99.99,,2013-11-04 21:00:00,
2013-11-04 21:45:00,46.0,-99.9,30.36,ESE,110,17.0,-999.0,-999,-99.99,,,-99.99,,2013-11-04 21:45:00,
2013-11-04 21:54:00,46.0,-99.9,30.36,ESE,110,17.0,-999.0,-999,-99.99,,,-99.99,,2013-11-04 21:54:00,
2013-11-04 22:00:00,45.0,-99.9,30.35,SE,130,22.0,-999.0,-999,-99.99,,,-99.99,,2013-11-04 22:00:00,
2013-11-04 22:43:00,45.0,-99.9,30.35,SE,130,22.0,-999.0,-999,-99.99,,,-99.99,,2013-11-04 22:43:00,
2013-11-04 22:53:00,45.0,-99.9,30.35,SE,130,22.0,-999.0,-999,-99.99,,,-99.99,,2013-11-04 22:53:00,
2013-11-04 23:00:00,45.0,-99.9,30.36,ESE,120,23.0,-999.0,-999,-99.99,,,-99.99,,2013-11-04 23:00:00,
2013-11-04 23:43:00,45.0,-99.9,30.36,ESE,120,23.0,-999.0,-999,-99.99,,,-99.99,,2013-11-04 23:43:00,
2013-11-04 23:53:00,45.0,-99.9,30.36,ESE,120,23.0,-999.0,-999,-99.99,,,-99.99,,2013-11-04 23:53:00,